RH
54 76 88 69 54 58 52 47 47 48 41 44 47 50 56 58 54 56 50 37 33 33 37 38 37 38 45 46 38 39 38 37 34 34 33 35 34 27 23 24 24 22 22
45 70 73 82 69 68 59 55 53 53 50 45 44 43 43 40 40 48 45 46 39 41 47 53 52 54 46 47 47 46 45 42 39 39 37 38 36 30 27 25 27 28 28
67 39 62 65 79 72 67 62 65 64 61 56 50 45 43 42 37 38 36 41 45 43 42 48 52 56 57 48 50 48 49 48 43 41 42 40 40 40 36 33 34 38 39
77 44 41 50 60 74 73 69 71 74 75 74 73 63 51 45 44 41 35 38 43 53 50 54 58 61 53 49 48 48 50 50 46 44 45 43 45 43 44 40 41 42 47
70 62 36 44 47 57 78 69 71 73 72 70 74 74 62 55 50 51 46 44 43 58 66 64 57 56 56 53 49 44 46 45 48 45 47 45 44 45 48 49 51 46 46
51 75 37 48 51 50 61 75 75 74 74 70 73 78 80 59 59 53 58 58 53 53 64 61 56 50 50 56 53 46 49 49 47 49 49 48 47 48 48 53 53 56 52
22 46 46 37 49 48 53 58 76 83 80 64 73 73 81 70 66 63 60 63 64 61 58 59 65 60 56 60 60 59 51 55 53 51 53 52 51 53 54 55 58 59 58
19 20 24 32 44 49 53 57 63 86 85 77 79 70 79 92 79 78 71 66 66 68 72 77 80 64 63 66 61 61 63 58 63 61 56 53 54 57 60 59 59 56 58
20 19 16 21 35 44 47 51 62 61 97 100 100 75 64 93 77 78 84 74 70 72 69 71 85 77 66 60 58 56 60 63 64 67 65 56 56 55 57 57 54 54 58
28 32 22 22 29 42 46 44 48 52 65 97 100 100 66 78 70 63 80 85 85 77 73 78 83 82 72 67 59 59 55 56 69 85 75 53 55 57 50 50 56 57 62
43 50 42 25 21 46 55 48 47 48 53 73 100 100 100 80 72 62 69 72 62 83 88 74 83 83 76 82 72 66 57 50 54 74 80 67 63 69 80 62 57 70 65
17 30 63 52 33 26 51 71 39 43 51 66 86 100 100 100 100 96 84 98 72 72 80 80 73 70 87 100 94 94 92 81 62 71 70 72 67 59 49 41 47 49 58
36 26 26 66 72 64 39 45 41 37 44 56 65 85 98 100 100 100 100 100 94 85 98 95 83 70 68 76 100 100 91 91 69 56 60 69 71 58 47 41 40 36 49
56 28 24 22 24 48 53 31 32 30 40 46 52 81 99 100 100 100 100 100 100 87 88 69 85 93 73 72 92 100 100 97 71 74 60 71 64 61 63 40 25 34 39
40 30 15 12 12 16 33 45 42 32 62 81 75 82 89 90 100 100 100 100 98 98 94 92 86 100 100 100 100 100 100 76 66 61 62 61 68 61 63 46 31 33 38
35 31 10 8 10 17 29 93 88 82 87 96 100 95 95 97 88 100 100 100 100 100 96 100 100 100 100 99 100 100 100 87 73 57 52 47 42 62 70 65 42 46 52
29 18 14 8 12 15 22 100 98 79 88 100 100 100 71 84 93 88 96 100 100 100 100 100 100 100 100 100 100 99 83 74 77 68 59 57 54 86 100 73 61 79 73
23 23 16 7 10 16 23 93 100 100 100 100 88 88 84 77 93 100 100 100 100 100 100 100 100 100 100 100 100 82 77 62 90 94 75 68 67 66 92 67 82 86 95
16 12 10 7 11 16 24 96 100 100 100 100 100 100 100 96 100 100 100 100 99 99 99 100 100 100 100 100 99 86 66 87 100 86 84 96 96 75 86 78 85 100 87
13 12 10 8 9 16 26 90 100 100 93 100 100 100 100 100 100 100 100 91 95 86 80 85 99 100 100 100 100 81 94 100 100 95 91 100 100 99 97 100 100 92 72
12 7 6 7 11 22 26 100 100 100 96 100 100 94 100 100 100 100 100 98 100 100 97 100 100 100 100 100 100 72 85 82 84 83 91 98 100 100 100 98 90 73 59
9 6 6 9 16 27 28 66 91 100 100 100 100 100 81 100 97 100 100 98 100 100 92 92 100 100 100 100 100 96 94 100 99 86 99 100 100 100 95 69 69 62 49
7 5 8 9 16 22 88 100 100 100 100 100 100 100 93 100 88 100 98 100 95 100 98 100 100 100 100 100 100 100 100 100 100 100 100 100 100 78 94 98 67 53 66
6 6 9 12 20 19 100 100 100 100 100 100 100 100 99 100 100 100 100 100 100 89 99 100 100 100 100 99 99 76 87 96 93 82 93 83 70 58 58 67 49 72 68
9 9 12 17 25 23 40 100 100 100 100 100 100 100 100 99 99 100 100 100 100 98 100 98 90 88 70 97 100 90 92 87 80 89 92 75 74 98 95 93 76 84 100
12 16 17 22 38 85 100 100 100 100 100 100 100 100 100 87 98 100 96 86 99 100 100 100 100 100 88 100 100 100 95 100 100 100 83 73 84 72 70 67 95 100 87
Wind_Speed
48 42 39 39 37 33 31 30 29 27 24 23 20 21 22 22 21 18 13 11 12 13 13 14 15 15 15 15 16 16 17 18 20 20 19 19 21 20 19 18 16 16 15
59 49 45 40 39 37 35 33 32 31 28 26 24 23 21 21 21 18 15 11 13 15 15 15 15 17 19 17 18 19 19 20 20 20 20 19 20 20 18 18 17 16 15
59 57 53 48 43 42 40 37 34 33 31 29 28 26 24 22 20 19 17 14 16 17 17 18 18 19 20 20 20 21 21 21 20 19 20 19 19 19 18 18 16 15 13
64 65 59 55 49 47 45 43 39 37 34 32 30 29 27 25 23 21 19 17 19 19 19 20 20 22 21 22 21 21 21 21 21 18 19 19 19 20 18 18 17 17 15
64 71 63 62 56 52 49 47 44 41 38 35 33 30 30 29 27 24 23 22 20 20 21 23 22 22 24 24 23 21 22 21 21 20 19 21 21 20 20 19 19 18 18
71 73 70 63 60 55 54 50 49 47 43 38 36 34 31 31 30 28 26 25 21 21 23 25 26 25 26 26 26 23 23 23 22 22 20 19 20 22 22 22 22 22 22
66 72 76 68 64 61 58 55 52 51 48 44 39 35 32 31 29 29 29 28 26 25 25 26 27 27 26 26 25 26 25 25 25 25 24 22 22 22 24 25 26 26 26
60 66 73 75 70 67 62 59 56 53 53 50 45 38 35 34 31 29 29 29 29 28 27 27 26 29 27 25 26 27 28 29 28 28 27 25 26 26 25 26 27 28 28
52 66 70 74 72 69 66 62 59 56 54 53 51 44 39 39 38 34 31 31 31 29 28 28 26 28 29 28 29 30 30 30 31 29 29 30 28 27 27 29 29 30 32
48 52 69 73 72 75 72 66 65 60 59 53 50 48 45 43 43 39 37 35 34 32 31 31 30 31 32 33 33 33 31 31 30 32 31 30 30 30 31 32 32 32 34
41 40 59 68 69 65 75 76 72 67 63 59 54 50 49 47 47 43 41 41 40 37 36 35 34 33 34 34 35 35 34 36 37 37 34 34 34 35 35 39 38 36 39
45 37 47 58 64 68 68 72 74 73 69 64 61 55 52 53 52 50 47 46 44 42 42 41 41 39 40 39 38 39 38 37 37 40 38 37 38 39 41 41 38 39 39
65 61 56 59 60 58 63 71 69 66 71 67 65 61 57 54 54 55 54 51 48 47 47 46 46 47 47 43 44 41 43 42 41 43 42 40 41 42 41 39 39 38 39
66 60 56 57 58 60 58 60 67 66 63 73 69 62 58 59 60 59 57 56 54 53 51 51 53 51 48 47 48 48 44 47 46 43 43 43 43 43 42 42 37 36 34
68 71 71 50 48 58 59 55 64 67 61 57 61 66 62 61 63 61 58 57 58 57 57 57 55 55 54 53 53 51 54 50 50 47 46 47 48 47 46 43 39 38 32
77 74 65 61 57 53 54 51 56 66 63 58 55 58 63 64 67 64 63 62 62 60 59 58 57 58 59 62 61 62 56 53 54 52 52 52 52 49 49 46 42 39 40
80 77 68 70 56 49 57 61 65 59 60 57 59 56 57 63 65 65 64 63 63 63 63 63 61 59 60 54 57 56 55 56 52 52 54 53 50 47 48 45 44 43 45
81 82 79 59 62 57 60 63 72 60 55 50 52 52 54 57 61 62 63 62 62 60 61 61 58 57 58 54 62 59 59 56 52 54 55 52 52 54 48 49 47 49 55
83 81 79 74 66 59 65 64 70 62 53 56 56 61 59 55 51 53 58 63 61 63 63 63 61 60 59 61 62 61 57 54 57 58 52 52 55 52 52 52 52 56 58
84 85 84 65 59 61 70 63 76 68 58 50 51 54 56 59 52 55 55 57 56 58 61 60 59 62 56 63 59 56 54 58 63 58 50 54 56 56 54 55 59 61 63
87 79 64 59 49 60 66 72 75 68 66 54 63 65 70 61 58 60 59 58 60 62 60 59 60 63 64 63 62 61 61 63 64 60 52 54 57 56 57 61 64 65 68
84 75 62 56 49 64 70 66 78 76 67 69 73 68 68 64 54 54 55 59 58 56 57 60 60 61 60 62 64 65 64 65 69 59 58 56 58 58 65 68 69 72 75
76 68 65 55 54 70 72 72 75 69 72 74 77 70 65 66 64 57 59 54 61 59 60 62 56 62 57 59 64 66 64 59 59 59 62 63 63 67 67 72 75 79 82
73 67 63 59 59 70 77 77 71 71 73 80 83 83 77 69 62 62 60 61 53 57 57 58 65 63 66 70 65 75 72 68 69 69 67 73 70 69 72 77 81 84 85
68 65 62 56 60 67 73 87 74 72 76 83 75 75 68 65 66 70 68 61 64 62 68 70 70 72 73 68 75 79 72 72 75 75 73 74 76 76 81 82 86 85 81
68 62 58 56 65 71 71 75 76 76 73 73 70 68 65 72 73 73 75 73 73 73 75 76 83 74 71 71 76 77 76 75 76 74 75 77 79 84 87 86 87 84 88
Wind_Direction
234 232 234 232 233 233 234 241 243 245 240 241 244 248 251 257 265 271 268 270 269 274 277 284 297 302 308 312 312 312 314 314 312 307 306 312 319 324 321 311 307 309 310
242 230 231 231 232 234 234 237 242 243 243 241 244 250 258 261 262 263 262 261 264 269 277 288 301 306 310 313 311 307 310 313 312 307 305 310 318 324 322 315 311 311 311
242 235 232 231 234 236 232 234 237 243 245 245 247 250 252 259 264 260 254 260 266 268 275 282 292 300 305 306 307 304 303 307 308 303 300 304 313 318 325 324 321 314 305
237 242 233 234 234 237 235 232 234 237 243 248 248 250 253 254 258 260 255 262 265 269 274 280 290 296 297 302 304 301 302 302 305 302 296 298 303 310 316 317 316 314 307
234 243 241 235 234 234 236 233 235 236 238 243 247 251 250 252 253 256 256 260 265 267 271 280 288 293 297 301 301 300 303 303 301 299 297 295 296 301 306 312 311 307 303
234 238 243 239 237 236 235 236 235 236 239 241 244 246 252 252 254 256 257 256 259 263 267 276 285 290 290 294 298 297 304 308 304 301 300 294 293 297 299 301 304 308 310
235 235 244 242 238 236 235 235 238 238 240 243 243 245 249 254 253 254 258 259 259 262 265 272 280 285 288 287 288 292 295 305 304 304 299 294 290 290 293 298 302 306 311
232 233 238 242 238 236 236 236 236 239 241 242 240 243 245 253 254 256 257 258 260 261 265 271 276 283 287 285 286 288 291 295 299 299 297 293 291 292 296 301 303 303 305
238 234 234 239 237 236 234 237 238 238 240 243 246 244 245 249 255 257 259 262 261 262 265 269 272 275 282 288 293 289 293 290 295 294 295 293 292 292 297 299 299 300 302
237 235 235 236 238 238 238 238 238 238 238 240 243 244 244 247 252 255 258 261 263 265 265 269 270 274 279 284 290 292 289 289 291 295 294 292 294 295 297 296 298 301 300
245 231 234 236 239 238 239 240 238 239 239 238 242 243 247 248 252 256 257 260 262 266 269 270 273 276 279 283 287 289 289 289 288 291 292 293 289 290 293 297 297 297 299
243 229 220 227 237 234 238 240 239 240 238 236 239 243 244 249 251 254 256 259 264 267 270 271 272 273 275 283 287 286 290 290 285 289 292 294 289 290 292 293 293 297 297
258 266 225 227 230 234 237 240 240 238 237 236 239 241 242 245 249 254 257 257 264 268 271 270 275 276 277 280 285 286 289 289 289 285 289 290 290 287 291 288 294 294 299
252 250 223 212 241 235 236 238 237 238 237 239 240 239 238 243 246 249 253 258 258 266 268 271 277 277 277 277 284 286 287 287 293 293 291 289 289 286 291 290 290 293 296
248 249 252 228 222 236 231 239 235 233 234 234 237 237 240 243 247 248 251 253 258 265 271 268 273 275 277 280 285 284 286 283 287 289 290 289 289 289 288 288 286 291 291
247 249 255 232 251 240 222 235 235 227 227 235 238 242 242 244 245 246 250 254 260 266 269 270 271 273 276 280 281 280 279 280 282 285 288 288 290 289 284 280 282 285 292
246 252 251 253 236 233 222 225 226 228 229 241 243 241 243 242 245 249 254 257 260 264 269 271 276 275 280 280 283 275 277 280 280 283 287 287 286 283 280 273 277 288 295
247 247 251 228 246 240 216 221 229 232 233 239 240 241 243 248 249 251 253 255 260 267 268 269 270 270 274 280 274 277 279 279 279 283 287 283 280 281 274 268 278 288 299
249 248 248 246 248 221 214 217 222 220 229 239 245 241 247 249 247 254 256 255 256 258 259 260 267 270 273 273 271 275 274 275 276 284 282 276 275 280 271 271 280 289 292
246 248 248 248 235 220 214 210 220 225 219 233 240 231 241 244 249 253 255 257 259 261 260 261 264 263 268 266 269 271 272 276 280 280 275 271 272 274 274 278 283 288 292
246 249 247 230 224 214 210 209 221 228 228 231 243 243 252 244 250 253 257 258 262 263 260 263 264 261 265 268 271 271 273 276 278 277 271 271 275 273 277 281 286 290 291
243 244 239 236 220 211 208 214 217 221 226 233 239 243 242 240 254 255 257 261 260 259 259 263 259 257 261 265 267 271 272 272 275 275 272 271 274 275 281 282 286 290 293
238 233 235 233 228 213 205 210 212 215 223 232 237 240 246 250 255 255 260 253 257 260 257 257 259 259 263 267 265 267 267 268 270 274 268 270 271 278 282 281 286 295 298
233 235 234 232 218 216 206 208 207 220 225 233 239 241 247 253 250 249 255 258 252 257 255 261 253 250 255 255 261 260 263 262 262 271 270 274 281 283 283 285 291 296 296
230 232 231 224 215 217 216 213 213 219 230 237 240 241 247 249 249 251 247 248 253 244 255 262 260 261 266 261 256 266 264 266 271 273 279 283 285 286 288 290 290 294 294
223 222 221 217 211 213 209 206 208 218 221 227 230 238 247 248 250 248 245 247 252 251 251 253 259 259 259 260 265 268 271 270 274 279 279 282 288 290 293 293 293 291 296